DW5450 Weather Reports


time (UTC)temp
C
wind
direction
speed
KPH
gust
KPH
rain 1hr
cm
rain 24hr
cm
rain mn
cm
humidity
%
barometer
mb
20260502194520 28 146 9.7 16.1 0.00 0.00 0.00 66 1010.8
20260502193018 28 167 8.0 22.5 0.00 0.00 0.00 63 1011.1
20260502191517 28 170 8.0 16.1 0.00 0.00 0.00 62 1011.3
20260502190022 28 155 8.0 16.1 0.00 0.00 0.00 63 1011.3
20260502184520 27 155 6.4 20.9 0.00 0.00 0.00 66 1011.4
20260502183015 28 190 8.0 17.7 0.00 0.00 0.00 67 1011.4
20260502181515 28 114 8.0 17.7 0.00 0.00 0.00 64 1011.5
20260502163009 27 123 1.6 12.9 0.00 0.00 0.00 63 1011.5
20260502161505 27 186 3.2 9.7 0.00 0.00 0.00 62 1011.5
20260502151559 24 319 0.0 3.2 0.00 0.00 0.00 69 1011.4
20260502123031 18 313 1.6 8.0 0.00 0.00 0.00 84 1009.6
20260502121532 18 306 3.2 9.7 0.00 0.00 0.00 85 1009.6
20260502114534 18 313 0.0 3.2 0.00 0.00 0.00 84 1009.3
20260502113028 18 310 0.0 3.2 0.00 0.00 0.00 83 1009.2
20260502111523 18 310 0.0 6.4 0.00 0.00 0.00 83 1009.1
20260502110022 18 298 1.6 4.8 0.00 0.00 0.00 83 1009.1
20260502104523 19 309 1.6 8.0 0.00 0.00 0.00 84 1009.0
20260502103020 18 307 1.6 6.4 0.00 0.00 0.00 85 1009.1
20260502101520 18 319 0.0 3.2 0.00 0.00 0.00 84 1009.1
20260502091513 20 319 1.6 3.2 0.00 0.00 0.00 85 1009.2
20260502070108 20 167 0.0 1.6 0.00 0.00 0.00 86 1010.4
20260502064620 20 167 0.0 0.0 0.00 0.00 0.00 85 1010.4
20260502063119 21 167 0.0 0.0 0.00 0.00 0.00 85 1010.6
20260502061555 21 167 0.0 0.0 0.00 0.00 0.00 85 1010.6
20260502060054 21 167 0.0 0.0 0.00 0.00 0.00 84 1010.8
20260502054554 21 167 0.0 0.0 0.00 0.00 0.00 84 1010.7
20260502053058 21 167 0.0 0.0 0.00 0.00 0.00 84 1010.6
20260502051550 22 167 0.0 0.0 0.00 0.00 0.00 83 1010.4
20260502050053 22 167 0.0 0.0 0.00 0.00 0.00 83 1010.3
20260502044547 22 167 0.0 0.0 0.00 0.00 0.00 82 1010.2
20260502043117 22 167 0.0 0.0 0.00 0.00 0.00 82 1010.0
20260502041558 23 167 0.0 0.0 0.00 0.00 0.00 81 1010.0
20260502040046 23 167 0.0 0.0 0.00 0.00 0.00 81 1009.8
20260502034545 23 167 0.0 0.0 0.00 0.00 0.00 80 1009.6
20260502033045 23 167 0.0 0.0 0.00 0.00 0.00 80 1009.6
20260502031545 23 167 0.0 0.0 0.00 0.00 0.00 79 1009.5
20260502030048 23 167 0.0 0.0 0.00 0.00 0.00 79 1009.2
20260502024542 24 167 0.0 0.0 0.00 0.00 0.00 78 1009.1
20260502023042 24 167 0.0 1.6 0.00 0.00 0.00 77 1008.9
20260502021541 25 167 0.0 1.6 0.00 0.00 0.00 76 1008.8
20260502020041 25 167 0.0 4.8 0.00 0.00 0.00 76 1008.6
20260502014541 25 159 0.0 6.4 0.00 0.00 0.00 75 1008.5
20260502013044 25 186 3.2 9.7 0.00 0.00 0.00 75 1008.4
20260502011539 25 175 1.6 8.0 0.00 0.00 0.00 74 1008.5
20260502010038 26 160 4.8 9.7 0.00 0.00 0.00 73 1008.5
20260502004543 26 167 1.6 11.3 0.00 0.00 0.00 72 1008.2
20260502003037 26 174 4.8 11.3 0.00 0.00 0.00 71 1008.1
20260502001537 26 154 8.0 14.5 0.00 0.00 0.00 71 1008.1
20260502000036 27 187 4.8 11.3 0.00 0.00 0.00 71 1008.1
20260501234536 27 195 3.2 12.9 0.00 0.00 0.00 71 1008.0
20260501233035 27 106 4.8 11.3 0.00 0.00 0.00 70 1008.2
20260501231534 27 153 4.8 14.5 0.00 0.00 0.00 70 1008.3
20260501230034 27 169 4.8 16.1 0.00 0.00 0.00 70 1008.3
20260501224533 27 129 6.4 17.7 0.00 0.00 0.00 69 1008.3
20260501223033 28 146 6.4 22.5 0.00 0.00 0.00 69 1008.4
20260501221534 28 151 6.4 16.1 0.00 0.00 0.00 67 1008.6
20260501220038 28 124 4.8 16.1 0.00 0.00 0.00 65 1008.6
20260501214534 28 170 4.8 20.9 0.00 0.00 0.00 66 1008.8
20260501213035 28 146 9.7 20.9 0.00 0.00 0.00 66 1008.9
20260501211533 28 134 8.0 19.3 0.00 0.00 0.00 66 1009.0
20260501210032 28 156 6.4 20.9 0.00 0.00 0.00 68 1009.3
20260501204541 28 128 9.7 20.9 0.00 0.00 0.00 68 1009.4
20260501203030 28 162 9.7 22.5 0.00 0.00 0.00 68 1009.4
20260501201528 28 146 9.7 25.7 0.00 0.00 0.00 69 1009.4
20260501200029 28 180 11.3 27.4 0.00 0.00 0.00 67 1009.6